{"data":{"norad_id":52371,"intl_designator":"2022-045AS","name":"STARLINK-3798","alt_names":[],"object_type":"PAYLOAD","status":"ACTIVE","operator":null,"country":"US","launch_date":"2022-04-29","launch_site_code":"AFETR","launch_vehicle":null,"mission":null,"orbit_class":"UNKNOWN","rcs_meters":null,"size_class":null,"mass_kg":null,"dimensions":null,"purposes":["comms"],"wikipedia_slug":null,"has_3d_model":false,"image_url":null,"decayed_at":null,"tle_current":{"epoch":"2026-09-19T23:13:21.084096Z","epoch_age_seconds":105630,"freshness":"FRESH","line1":"1 52371U 22045AS  26262.96760514  .00000249  00000+0  19786-4 0  9996","line2":"2 52371  53.1626  24.2415 0001135  77.6894 282.4234 15.31703000245413","mean_motion":15.31703,"eccentricity":0.0001135,"inclination_deg":53.1626,"raan_deg":24.2415,"arg_perigee_deg":77.6894,"mean_anomaly_deg":282.4234,"bstar":1.9786e-5,"rev_number":24541,"period_min":94.01300382646,"perigee_km":469.9537058724,"apogee_km":471.5083989203,"semimajor_km":6848.8680523964,"source":"CELESTRAK","updated_at":"2026-09-20T09:00:40.028914Z"}}}